Home > Time Zones > World Clock > Weather > U.S.A. > Nome > Past weeks

Flag for U.S.A. Weather past 2 weeks in Nome, Alaska, U.S.A.

33 °F

Light snow. Mostly cloudy.

Feels Like: 25 °F
Forecast: 24 / 30 °F
Wind: 10 mph from Northeast

Location: Nome Airport

Current Time: Nov 28, 2015 at 12:44:26 AM

Latest Report: Nov 27, 2015 at 11:53 PM

Visibility: 7 mi

Pressure: 29.14 "Hg

Humidity: 78%

Dew point: 27 °F

Location of NomeLocation

Historic Weather in Nome — Graph


Nome temperature yesterday

Maximum temperature yesterday: 31 °F (at 7:53 PM)
Minimum temperature yesterday: 23 °F (at 12:53 AM)
Average temperature yesterday: 26 °F

Past Weeks' High & Low Weather Summary

High32 °F (Nov 23, 8:53 PM)100% (Nov 23, 11:02 PM)30.16 "Hg (Nov 23, 11:02 PM)
Low-7 °F (Nov 17, 10:53 AM)33% (Nov 26, 5:53 PM)28.95 "Hg (Nov 19, 5:53 PM)
Average14 °F78%29.64 "Hg
* Reported Nov 12 10:53 PM — Nov 27 10:53 PM, Nome, Weather by CustomWeather, © 2015

Note: Actual official high and low records may vary slightly from our data, if they occured in-between our weather recording intervals... More about our weather records


Nome weather history for previous 24 hours

Time TempWeatherWind HumidityBarometerVisibility
10:53 PM
Fri, Nov 27
31 °FOvercast.15 mph76%29.14 "Hg10 mi
9:53 PM30 °FPassing clouds.10 mph75%29.13 "Hg10 mi
8:53 PM30 °FPassing clouds.15 mph75%29.12 "Hg10 mi
7:53 PM31 °FPassing clouds.17 mph73%29.12 "Hg10 mi
6:53 PM29 °FPassing clouds.18 mph75%29.12 "Hg10 mi
5:53 PM28 °FLight snow. Mostly cloudy.21 mph81%29.13 "Hg9 mi
4:53 PM27 °FMostly cloudy.23 mph78%29.15 "Hg8 mi
3:53 PM26 °FLight snow. Mostly cloudy.22 mph81%29.18 "Hg3 mi
2:53 PM26 °FLight snow. Mostly cloudy.23 mph81%29.20 "Hg8 mi
1:53 PM28 °FLight snow. Overcast.21 mph81%29.22 "Hg3 mi
12:53 PM29 °FMostly cloudy.23 mph69%29.25 "Hg10 mi
11:53 AM27 °FMore clouds than sun.25 mph63%29.28 "Hg10 mi
10:53 AM27 °FMostly cloudy.18 mph58%29.30 "Hg10 mi
9:53 AM24 °FPassing clouds.26 mph57%29.34 "Hg10 mi
8:53 AM26 °FPassing clouds.23 mph48%29.36 "Hg10 mi
7:53 AM25 °FMostly cloudy.31 mph48%29.37 "Hg10 mi
6:53 AM24 °FMostly cloudy.24 mph55%29.42 "Hg10 mi
5:53 AM24 °FMostly cloudy.25 mph55%29.47 "Hg10 mi
4:53 AM24 °FOvercast.36 mph52%29.49 "Hg8 mi
3:53 AM23 °FMostly cloudy.29 mph57%29.55 "Hg10 mi
2:53 AM23 °FMostly cloudy.32 mph60%29.58 "Hg5 mi
1:53 AM24 °FOvercast.25 mph55%29.62 "Hg10 mi
12:53 AM23 °FOvercast.22 mph57%29.67 "Hg10 mi
Weather by CustomWeather, © 2015

See weather overviewHow to use our weather pages